Home > Weather > Bloomington > Past weeks

Flag for USA Past Weather in Bloomington, Illinois, USA — Yesterday and Last 2 Weeks

Now
78 °F

Sunny.


Feels Like: 80 °F
Forecast: 67 / 87 °F
Wind: 5 mph from Southwest

Location: Bloomington / Normal

Current Time: Jul 26, 2016 at 8:55:18 PM

Latest Report: Jul 26, 2016 at 7:56 PM


Visibility: 10 mi

Pressure: 30.06 "Hg

Humidity: 79%

Dew Point: 71 °F

Location of BloomingtonLocation

Past Weather in Bloomington — Graph

°F

Bloomington Temperature Yesterday

Maximum temperature yesterday: 84 °F (at 3:56 PM)
Minimum temperature yesterday: 71 °F (at 12:56 AM)
Average temperature yesterday: 77 °F

High & Low Weather Summary for the Past Weeks

 TemperatureHumidityPressure
High91 °F (Jul 21, 2:56 PM)97% (Jul 12, 4:56 AM)30.29 "Hg (Jul 12, 4:56 AM)
Low62 °F (Jul 16, 4:56 AM)53% (Jul 14, 4:56 PM)29.83 "Hg (Jul 13, 4:56 PM)
Average77 °F81%30.07 "Hg
* Reported Jul 11 6:56 PM — Jul 26 6:56 PM, Bloomington, Weather by CustomWeather, © 2016

Note: Actual official high and low records may vary slightly from our data, if they occured in-between our weather recording intervals... More about our weather records

Advertising

Bloomington Weather History for the Previous 24 Hours

Scroll right to see more
 ConditionsComfort  
Time TempWeatherWind HumidityBarometerVisibility
6:56 PM
Tue, Jul 26
81 °FSunny.9 mph69%30.06 "Hg10 mi
5:56 PM82 °FScattered clouds.8 mph67%30.06 "Hg10 mi
4:56 PM83 °FScattered clouds.5 mph63%30.05 "Hg10 mi
3:56 PM82 °FBroken clouds.8 mph65%30.05 "Hg10 mi
2:56 PM83 °FPassing clouds.6 mph63%30.07 "Hg10 mi
1:56 PM84 °FScattered clouds.6 mph63%30.08 "Hg10 mi
12:56 PM82 °FScattered clouds.7 mph65%30.09 "Hg10 mi
11:56 AM82 °FScattered clouds.6 mph65%30.10 "Hg10 mi
10:56 AM82 °FScattered clouds.7 mph67%30.10 "Hg10 mi
9:56 AM80 °FSunny.7 mph71%30.11 "Hg10 mi
8:56 AM77 °FSunny.3 mph79%30.11 "Hg10 mi
7:56 AM73 °FSunny.6 mph88%30.11 "Hg10 mi
6:56 AM71 °FSunny.3 mph87%30.10 "Hg10 mi
5:56 AM70 °FClear.No wind87%30.09 "Hg10 mi
4:56 AM70 °FClear.5 mph90%30.09 "Hg10 mi
3:56 AM71 °FClear.6 mph90%30.08 "Hg10 mi
2:56 AM71 °FClear.5 mph90%30.07 "Hg10 mi
1:56 AM71 °FClear.No wind90%30.07 "Hg10 mi
12:56 AM72 °FClear.No wind87%30.05 "Hg10 mi
11:56 PM
Mon, Jul 25
75 °FClear.No wind76%30.05 "Hg10 mi
10:56 PM75 °FClear.No wind79%30.05 "Hg10 mi
8:56 PM76 °FSunny.5 mph82%30.03 "Hg10 mi
Weather by CustomWeather, © 2016

See weather overviewHow to use our weather pages